QPF
0.00 0.00 0.00 0.00 0.00 0.00 0.00 0.00 0.00 0.00 0.00 0.00 0.00 0.00 0.00 0.00 0.00 0.00 0.00 0.00 0.00 0.00 0.00 0.00 0.00 0.00 0.00 0.00 0.00 0.00 0.00 0.00 0.00 0.00 0.01 0.02 0.01 0.02 0.03 0.03 0.03 0.03 0.03 0.03
0.00 0.00 0.00 0.00 0.00 0.00 0.00 0.00 0.00 0.00 0.00 0.00 0.00 0.00 0.00 0.00 0.00 0.00 0.00 0.00 0.00 0.00 0.00 0.00 0.00 0.00 0.00 0.00 0.00 0.00 0.00 0.00 0.00 0.00 0.00 0.00 0.01 0.02 0.02 0.03 0.03 0.02 0.02 0.04
0.00 0.00 0.00 0.00 0.00 0.00 0.00 0.00 0.00 0.00 0.00 0.00 0.00 0.00 0.00 0.00 0.00 0.00 0.00 0.00 0.00 0.00 0.00 0.00 0.00 0.00 0.00 0.00 0.00 0.00 0.00 0.00 0.00 0.00 0.00 0.00 0.00 0.01 0.02 0.02 0.02 0.01 0.01 0.02
0.00 0.00 0.00 0.00 0.00 0.00 0.00 0.00 0.00 0.00 0.00 0.00 0.00 0.00 0.00 0.00 0.00 0.00 0.00 0.00 0.00 0.00 0.00 0.00 0.00 0.00 0.00 0.00 0.00 0.00 0.00 0.00 0.00 0.00 0.00 0.00 0.00 0.01 0.02 0.03 0.02 0.01 0.01 0.01
0.00 0.00 0.00 0.00 0.00 0.00 0.00 0.00 0.00 0.00 0.00 0.00 0.00 0.00 0.00 0.00 0.00 0.00 0.00 0.00 0.00 0.00 0.00 0.00 0.00 0.00 0.00 0.00 0.00 0.00 0.00 0.00 0.00 0.00 0.00 0.00 0.00 0.01 0.01 0.02 0.02 0.01 0.01 0.01
0.00 0.00 0.00 0.00 0.00 0.00 0.00 0.00 0.00 0.00 0.00 0.00 0.00 0.00 0.00 0.00 0.00 0.00 0.00 0.00 0.00 0.00 0.00 0.00 0.00 0.00 0.00 0.00 0.00 0.00 0.00 0.00 0.00 0.00 0.00 0.00 0.00 0.00 0.00 0.01 0.02 0.01 0.01 0.00
0.00 0.00 0.00 0.00 0.00 0.00 0.00 0.00 0.00 0.00 0.00 0.00 0.00 0.00 0.00 0.00 0.00 0.00 0.00 0.00 0.00 0.00 0.00 0.00 0.00 0.00 0.00 0.00 0.00 0.00 0.00 0.00 0.00 0.00 0.00 0.00 0.00 0.00 0.00 0.00 0.01 0.02 0.01 0.00
0.00 0.00 0.00 0.00 0.00 0.00 0.00 0.00 0.00 0.00 0.00 0.00 0.00 0.00 0.00 0.00 0.00 0.00 0.00 0.00 0.00 0.00 0.00 0.00 0.00 0.00 0.00 0.00 0.00 0.00 0.00 0.00 0.00 0.00 0.00 0.00 0.00 0.00 0.00 0.00 0.00 0.01 0.02 0.01
0.00 0.00 0.00 0.00 0.00 0.00 0.00 0.00 0.00 0.00 0.00 0.00 0.00 0.00 0.00 0.00 0.00 0.00 0.00 0.00 0.00 0.00 0.00 0.00 0.00 0.00 0.00 0.00 0.00 0.00 0.00 0.00 0.00 0.00 0.00 0.00 0.00 0.00 0.00 0.00 0.00 0.00 0.00 0.01
0.00 0.00 0.00 0.00 0.00 0.00 0.00 0.00 0.00 0.00 0.00 0.00 0.00 0.00 0.00 0.00 0.00 0.00 0.00 0.00 0.00 0.00 0.00 0.00 0.00 0.00 0.00 0.00 0.00 0.00 0.00 0.00 0.00 0.00 0.00 0.00 0.00 0.00 0.00 0.00 0.00 0.00 0.00 0.00
0.00 0.00 0.00 0.00 0.00 0.00 0.00 0.00 0.00 0.00 0.00 0.00 0.00 0.00 0.00 0.00 0.00 0.00 0.00 0.00 0.00 0.00 0.00 0.00 0.00 0.00 0.00 0.00 0.00 0.00 0.00 0.00 0.00 0.00 0.00 0.00 0.00 0.00 0.00 0.00 0.00 0.00 0.00 0.00
0.00 0.00 0.00 0.00 0.00 0.00 0.00 0.00 0.00 0.00 0.00 0.00 0.00 0.00 0.00 0.00 0.00 0.00 0.00 0.00 0.00 0.00 0.00 0.00 0.00 0.00 0.00 0.00 0.00 0.00 0.00 0.00 0.00 0.00 0.00 0.00 0.00 0.00 0.00 0.00 0.00 0.00 0.00 0.00
0.00 0.00 0.00 0.00 0.00 0.00 0.00 0.00 0.00 0.00 0.00 0.00 0.00 0.00 0.00 0.00 0.00 0.00 0.00 0.00 0.00 0.00 0.00 0.00 0.00 0.00 0.00 0.00 0.00 0.00 0.00 0.00 0.00 0.00 0.00 0.00 0.00 0.00 0.00 0.00 0.00 0.00 0.00 0.00
0.00 0.00 0.00 0.00 0.00 0.00 0.00 0.00 0.00 0.00 0.00 0.00 0.00 0.00 0.00 0.00 0.00 0.00 0.00 0.00 0.00 0.00 0.00 0.00 0.00 0.00 0.00 0.00 0.00 0.00 0.00 0.00 0.00 0.00 0.00 0.00 0.00 0.00 0.00 0.00 0.00 0.00 0.00 0.00
0.00 0.00 0.00 0.00 0.00 0.00 0.00 0.00 0.00 0.00 0.00 0.00 0.00 0.00 0.00 0.00 0.00 0.00 0.00 0.00 0.00 0.00 0.00 0.00 0.00 0.00 0.00 0.00 0.00 0.00 0.00 0.00 0.00 0.00 0.00 0.00 0.00 0.00 0.00 0.00 0.00 0.00 0.00 0.00
0.00 0.00 0.00 0.00 0.00 0.00 0.00 0.00 0.00 0.00 0.00 0.00 0.00 0.00 0.00 0.00 0.00 0.00 0.00 0.00 0.00 0.00 0.00 0.00 0.00 0.00 0.00 0.00 0.00 0.00 0.00 0.00 0.00 0.00 0.00 0.00 0.00 0.00 0.00 0.00 0.00 0.00 0.00 0.00
0.00 0.00 0.00 0.00 0.00 0.00 0.00 0.00 0.00 0.00 0.00 0.00 0.00 0.00 0.00 0.00 0.00 0.00 0.00 0.00 0.00 0.00 0.00 0.00 0.00 0.00 0.00 0.00 0.00 0.00 0.00 0.00 0.00 0.00 0.00 0.00 0.00 0.00 0.00 0.00 0.00 0.00 0.00 0.00
0.00 0.00 0.00 0.00 0.00 0.00 0.00 0.00 0.00 0.00 0.00 0.00 0.00 0.00 0.00 0.00 0.00 0.00 0.00 0.00 0.00 0.00 0.00 0.00 0.00 0.00 0.00 0.00 0.00 0.00 0.00 0.00 0.00 0.00 0.00 0.00 0.00 0.00 0.00 0.00 0.00 0.00 0.00 0.00
0.00 0.00 0.00 0.00 0.00 0.00 0.00 0.00 0.00 0.00 0.00 0.00 0.00 0.00 0.00 0.00 0.00 0.00 0.00 0.00 0.00 0.00 0.00 0.00 0.00 0.00 0.00 0.00 0.00 0.00 0.00 0.00 0.00 0.00 0.00 0.00 0.00 0.00 0.00 0.00 0.00 0.00 0.00 0.00
0.00 0.00 0.00 0.00 0.00 0.00 0.00 0.00 0.00 0.00 0.00 0.00 0.00 0.00 0.00 0.00 0.00 0.00 0.00 0.00 0.00 0.00 0.00 0.00 0.00 0.00 0.00 0.00 0.00 0.00 0.00 0.00 0.00 0.00 0.00 0.00 0.00 0.00 0.00 0.00 0.00 0.00 0.00 0.00
0.00 0.00 0.00 0.00 0.00 0.00 0.00 0.00 0.00 0.00 0.00 0.00 0.00 0.00 0.00 0.00 0.00 0.00 0.00 0.00 0.00 0.00 0.00 0.00 0.00 0.00 0.00 0.00 0.00 0.00 0.00 0.00 0.00 0.00 0.00 0.00 0.00 0.00 0.00 0.00 0.00 0.00 0.00 0.00
0.00 0.00 0.00 0.00 0.00 0.00 0.00 0.00 0.00 0.00 0.00 0.00 0.00 0.00 0.00 0.00 0.00 0.00 0.00 0.00 0.00 0.00 0.00 0.00 0.00 0.00 0.00 0.00 0.00 0.00 0.00 0.00 0.00 0.00 0.00 0.00 0.00 0.00 0.00 0.00 0.00 0.00 0.00 0.00
0.00 0.00 0.00 0.00 0.00 0.00 0.00 0.00 0.00 0.00 0.00 0.00 0.00 0.00 0.00 0.00 0.00 0.00 0.00 0.00 0.00 0.00 0.00 0.00 0.00 0.00 0.00 0.00 0.00 0.00 0.00 0.00 0.00 0.00 0.00 0.00 0.00 0.00 0.00 0.00 0.00 0.00 0.00 0.01
0.00 0.00 0.00 0.00 0.00 0.00 0.00 0.00 0.00 0.00 0.00 0.00 0.00 0.00 0.00 0.00 0.00 0.00 0.00 0.00 0.00 0.00 0.00 0.00 0.00 0.00 0.00 0.00 0.00 0.00 0.00 0.00 0.00 0.00 0.00 0.00 0.00 0.00 0.00 0.00 0.00 0.00 0.01 0.01
0.00 0.00 0.00 0.00 0.00 0.00 0.00 0.00 0.00 0.00 0.00 0.00 0.00 0.00 0.00 0.00 0.00 0.00 0.00 0.00 0.00 0.00 0.00 0.00 0.00 0.00 0.00 0.00 0.00 0.00 0.00 0.00 0.00 0.00 0.00 0.00 0.00 0.00 0.00 0.00 0.00 0.01 0.01 0.01
0.00 0.00 0.00 0.00 0.00 0.00 0.00 0.00 0.00 0.00 0.00 0.00 0.00 0.00 0.00 0.00 0.00 0.00 0.00 0.00 0.00 0.00 0.00 0.00 0.00 0.00 0.00 0.00 0.00 0.00 0.00 0.00 0.00 0.00 0.00 0.00 0.00 0.00 0.00 0.00 0.01 0.01 0.01 0.01
0.00 0.00 0.00 0.00 0.00 0.00 0.00 0.00 0.00 0.00 0.00 0.00 0.00 0.00 0.00 0.00 0.00 0.00 0.00 0.00 0.00 0.00 0.00 0.00 0.00 0.00 0.00 0.00 0.00 0.00 0.00 0.00 0.00 0.00 0.00 0.00 0.00 0.00 0.01 0.01 0.01 0.02 0.02 0.02
MSLP
1012.33 1012.54 1012.75 1012.96 1013.16 1013.32 1013.40 1013.38 1013.24 1012.99 1012.65 1012.26 1011.85 1011.49 1011.21 1011.04 1010.99 1011.06 1011.21 1011.42 1011.65 1011.88 1012.08 1012.25 1012.39 1012.52 1012.65 1012.79 1012.94 1013.11 1013.26 1013.40 1013.49 1013.53 1013.50 1013.40 1013.26 1013.08 1012.88 1012.69 1012.50 1012.33 1012.17 1012.01
1012.31 1012.48 1012.61 1012.71 1012.77 1012.77 1012.72 1012.60 1012.40 1012.15 1011.85 1011.53 1011.23 1010.98 1010.80 1010.71 1010.70 1010.78 1010.93 1011.11 1011.31 1011.51 1011.70 1011.87 1012.04 1012.21 1012.39 1012.58 1012.79 1013.00 1013.20 1013.36 1013.49 1013.55 1013.54 1013.47 1013.35 1013.18 1012.99 1012.79 1012.59 1012.39 1012.20 1012.01
1012.33 1012.45 1012.50 1012.48 1012.40 1012.27 1012.10 1011.88 1011.63 1011.37 1011.11 1010.86 1010.66 1010.50 1010.42 1010.39 1010.43 1010.53 1010.66 1010.82 1010.99 1011.17 1011.35 1011.53 1011.72 1011.93 1012.15 1012.39 1012.64 1012.89 1013.12 1013.32 1013.46 1013.54 1013.55 1013.49 1013.38 1013.22 1013.03 1012.82 1012.61 1012.39 1012.17 1011.95
1012.34 1012.40 1012.35 1012.23 1012.03 1011.78 1011.50 1011.21 1010.92 1010.66 1010.42 1010.24 1010.11 1010.04 1010.03 1010.07 1010.15 1010.26 1010.40 1010.54 1010.70 1010.86 1011.03 1011.22 1011.43 1011.67 1011.93 1012.21 1012.50 1012.78 1013.02 1013.23 1013.38 1013.46 1013.48 1013.43 1013.32 1013.17 1012.98 1012.77 1012.55 1012.32 1012.08 1011.84
1012.28 1012.25 1012.11 1011.88 1011.59 1011.25 1010.89 1010.54 1010.23 1009.96 1009.76 1009.63 1009.57 1009.57 1009.63 1009.72 1009.84 1009.97 1010.11 1010.25 1010.40 1010.56 1010.74 1010.94 1011.17 1011.43 1011.71 1012.02 1012.32 1012.61 1012.87 1013.08 1013.23 1013.31 1013.32 1013.28 1013.18 1013.03 1012.85 1012.64 1012.42 1012.18 1011.94 1011.69
1012.05 1011.92 1011.69 1011.38 1011.01 1010.61 1010.21 1009.84 1009.52 1009.27 1009.11 1009.03 1009.02 1009.08 1009.19 1009.33 1009.48 1009.64 1009.79 1009.94 1010.09 1010.25 1010.43 1010.65 1010.89 1011.16 1011.46 1011.78 1012.09 1012.38 1012.63 1012.84 1012.98 1013.07 1013.08 1013.04 1012.95 1012.82 1012.65 1012.46 1012.25 1012.02 1011.78 1011.54
1011.59 1011.36 1011.05 1010.68 1010.28 1009.86 1009.45 1009.09 1008.80 1008.59 1008.47 1008.44 1008.49 1008.60 1008.75 1008.92 1009.10 1009.28 1009.45 1009.61 1009.77 1009.93 1010.12 1010.34 1010.58 1010.86 1011.16 1011.47 1011.78 1012.06 1012.31 1012.51 1012.66 1012.74 1012.77 1012.74 1012.66 1012.55 1012.41 1012.24 1012.05 1011.85 1011.63 1011.41
1010.88 1010.57 1010.21 1009.82 1009.42 1009.02 1008.66 1008.35 1008.11 1007.96 1007.89 1007.91 1008.00 1008.15 1008.34 1008.54 1008.74 1008.93 1009.11 1009.28 1009.44 1009.61 1009.79 1010.00 1010.24 1010.51 1010.79 1011.09 1011.38 1011.66 1011.90 1012.10 1012.25 1012.34 1012.38 1012.38 1012.33 1012.24 1012.13 1011.99 1011.84 1011.67 1011.49 1011.30
1009.97 1009.61 1009.24 1008.87 1008.52 1008.19 1007.90 1007.68 1007.52 1007.44 1007.43 1007.50 1007.64 1007.81 1008.02 1008.23 1008.44 1008.64 1008.82 1008.99 1009.14 1009.31 1009.48 1009.67 1009.88 1010.12 1010.38 1010.65 1010.92 1011.18 1011.41 1011.61 1011.76 1011.87 1011.93 1011.95 1011.93 1011.88 1011.81 1011.71 1011.59 1011.46 1011.33 1011.19
1008.93 1008.57 1008.23 1007.93 1007.66 1007.44 1007.27 1007.15 1007.09 1007.09 1007.15 1007.27 1007.43 1007.62 1007.83 1008.05 1008.25 1008.45 1008.62 1008.78 1008.92 1009.06 1009.21 1009.37 1009.55 1009.75 1009.96 1010.19 1010.43 1010.65 1010.86 1011.05 1011.21 1011.33 1011.41 1011.45 1011.46 1011.44 1011.39 1011.33 1011.25 1011.17 1011.08 1011.01
1007.85 1007.54 1007.28 1007.08 1006.93 1006.84 1006.80 1006.81 1006.86 1006.94 1007.06 1007.22 1007.40 1007.60 1007.81 1008.01 1008.21 1008.39 1008.55 1008.69 1008.82 1008.93 1009.05 1009.16 1009.29 1009.43 1009.59 1009.76 1009.94 1010.12 1010.30 1010.46 1010.60 1010.72 1010.80 1010.86 1010.89 1010.88 1010.86 1010.82 1010.77 1010.72 1010.69 1010.66
1006.82 1006.59 1006.44 1006.37 1006.37 1006.42 1006.52 1006.65 1006.80 1006.97 1007.15 1007.34 1007.53 1007.73 1007.93 1008.12 1008.31 1008.48 1008.63 1008.75 1008.86 1008.95 1009.03 1009.10 1009.17 1009.24 1009.32 1009.42 1009.52 1009.64 1009.76 1009.87 1009.98 1010.06 1010.13 1010.18 1010.19 1010.19 1010.17 1010.13 1010.10 1010.08 1010.07 1010.10
1005.87 1005.74 1005.72 1005.79 1005.94 1006.14 1006.37 1006.61 1006.86 1007.10 1007.33 1007.54 1007.75 1007.96 1008.15 1008.35 1008.53 1008.70 1008.85 1008.97 1009.07 1009.14 1009.19 1009.21 1009.22 1009.22 1009.22 1009.22 1009.23 1009.26 1009.29 1009.33 1009.38 1009.41 1009.43 1009.44 1009.42 1009.39 1009.35 1009.30 1009.27 1009.25 1009.26 1009.31
1005.00 1004.98 1005.09 1005.29 1005.57 1005.90 1006.25 1006.60 1006.93 1007.23 1007.51 1007.76 1007.99 1008.21 1008.42 1008.62 1008.82 1009.01 1009.18 1009.32 1009.43 1009.50 1009.53 1009.51 1009.47 1009.39 1009.30 1009.21 1009.12 1009.04 1008.97 1008.91 1008.86 1008.82 1008.77 1008.72 1008.65 1008.57 1008.49 1008.42 1008.35 1008.32 1008.32 1008.37
1004.20 1004.29 1004.50 1004.82 1005.22 1005.65 1006.10 1006.54 1006.94 1007.30 1007.62 1007.91 1008.17 1008.42 1008.66 1008.91 1009.15 1009.38 1009.59 1009.78 1009.91 1010.00 1010.02 1009.99 1009.90 1009.76 1009.59 1009.40 1009.21 1009.01 1008.83 1008.67 1008.52 1008.38 1008.25 1008.12 1007.99 1007.86 1007.73 1007.61 1007.50 1007.43 1007.41 1007.43
1003.49 1003.65 1003.94 1004.35 1004.83 1005.35 1005.87 1006.37 1006.83 1007.25 1007.62 1007.96 1008.27 1008.57 1008.87 1009.17 1009.47 1009.77 1010.04 1010.28 1010.47 1010.59 1010.63 1010.60 1010.48 1010.30 1010.07 1009.80 1009.50 1009.21 1008.93 1008.66 1008.41 1008.18 1007.97 1007.77 1007.58 1007.39 1007.21 1007.04 1006.89 1006.78 1006.71 1006.68
1002.88 1003.09 1003.44 1003.89 1004.43 1005.00 1005.57 1006.13 1006.64 1007.11 1007.54 1007.93 1008.30 1008.67 1009.03 1009.40 1009.78 1010.15 1010.50 1010.80 1011.05 1011.22 1011.29 1011.27 1011.16 1010.95 1010.68 1010.35 1009.99 1009.62 1009.26 1008.91 1008.59 1008.29 1008.02 1007.76 1007.52 1007.29 1007.06 1006.86 1006.67 1006.51 1006.38 1006.30
1002.46 1002.68 1003.05 1003.52 1004.08 1004.68 1005.29 1005.88 1006.44 1006.96 1007.44 1007.89 1008.32 1008.75 1009.18 1009.63 1010.07 1010.51 1010.93 1011.30 1011.60 1011.82 1011.93 1011.94 1011.84 1011.64 1011.36 1011.01 1010.62 1010.22 1009.81 1009.42 1009.05 1008.72 1008.41 1008.13 1007.86 1007.61 1007.38 1007.15 1006.93 1006.73 1006.55 1006.39
1002.32 1002.53 1002.88 1003.34 1003.90 1004.50 1005.12 1005.73 1006.32 1006.88 1007.40 1007.91 1008.39 1008.88 1009.37 1009.86 1010.36 1010.85 1011.31 1011.73 1012.07 1012.33 1012.49 1012.53 1012.46 1012.29 1012.03 1011.70 1011.32 1010.92 1010.52 1010.13 1009.76 1009.43 1009.13 1008.85 1008.59 1008.35 1008.12 1007.89 1007.66 1007.43 1007.21 1006.99
1002.53 1002.70 1003.01 1003.44 1003.96 1004.54 1005.15 1005.77 1006.37 1006.95 1007.51 1008.05 1008.57 1009.09 1009.61 1010.14 1010.65 1011.16 1011.64 1012.07 1012.44 1012.72 1012.90 1012.98 1012.96 1012.83 1012.61 1012.33 1012.00 1011.64 1011.28 1010.93 1010.61 1010.31 1010.05 1009.81 1009.58 1009.37 1009.17 1008.95 1008.73 1008.49 1008.24 1007.98
1003.10 1003.22 1003.47 1003.85 1004.32 1004.86 1005.44 1006.04 1006.63 1007.22 1007.78 1008.34 1008.87 1009.40 1009.92 1010.44 1010.94 1011.44 1011.90 1012.32 1012.68 1012.96 1013.16 1013.26 1013.28 1013.20 1013.05 1012.83 1012.57 1012.29 1012.00 1011.72 1011.46 1011.23 1011.02 1010.83 1010.66 1010.49 1010.32 1010.13 1009.93 1009.70 1009.44 1009.15
1003.98 1004.04 1004.22 1004.53 1004.93 1005.41 1005.94 1006.50 1007.07 1007.64 1008.19 1008.73 1009.26 1009.77 1010.26 1010.75 1011.22 1011.66 1012.08 1012.46 1012.79 1013.05 1013.25 1013.37 1013.41 1013.39 1013.30 1013.16 1012.99 1012.79 1012.59 1012.39 1012.20 1012.04 1011.89 1011.75 1011.63 1011.50 1011.37 1011.21 1011.03 1010.82 1010.57 1010.27
1005.04 1005.03 1005.14 1005.36 1005.69 1006.09 1006.56 1007.06 1007.59 1008.12 1008.65 1009.17 1009.66 1010.14 1010.59 1011.02 1011.44 1011.82 1012.18 1012.50 1012.78 1013.01 1013.19 1013.31 1013.38 1013.40 1013.37 1013.30 1013.20 1013.09 1012.97 1012.85 1012.73 1012.62 1012.53 1012.43 1012.34 1012.25 1012.14 1012.01 1011.86 1011.66 1011.43 1011.15
1006.11 1006.04 1006.07 1006.21 1006.45 1006.78 1007.17 1007.61 1008.08 1008.58 1009.07 1009.55 1010.01 1010.45 1010.86 1011.24 1011.59 1011.91 1012.20 1012.46 1012.68 1012.87 1013.02 1013.14 1013.22 1013.26 1013.28 1013.26 1013.23 1013.18 1013.13 1013.06 1013.00 1012.93 1012.87 1012.80 1012.73 1012.65 1012.55 1012.43 1012.29 1012.12 1011.91 1011.66
1007.02 1006.89 1006.86 1006.92 1007.08 1007.32 1007.64 1008.02 1008.45 1008.89 1009.35 1009.80 1010.24 1010.65 1011.02 1011.36 1011.66 1011.93 1012.16 1012.36 1012.53 1012.67 1012.79 1012.89 1012.97 1013.03 1013.07 1013.09 1013.10 1013.10 1013.08 1013.06 1013.02 1012.98 1012.93 1012.86 1012.79 1012.70 1012.61 1012.49 1012.35 1012.19 1012.00 1011.78
1007.63 1007.47 1007.38 1007.38 1007.47 1007.65 1007.90 1008.23 1008.61 1009.03 1009.46 1009.90 1010.32 1010.71 1011.07 1011.39 1011.66 1011.89 1012.08 1012.23 1012.36 1012.47 1012.56 1012.63 1012.70 1012.75 1012.80 1012.84 1012.87 1012.89 1012.90 1012.89 1012.87 1012.83 1012.78 1012.70 1012.62 1012.52 1012.41 1012.28 1012.14 1011.98 1011.80 1011.60
1007.90 1007.72 1007.60 1007.55 1007.59 1007.72 1007.94 1008.23 1008.58 1008.98 1009.41 1009.85 1010.27 1010.67 1011.03 1011.34 1011.61 1011.82 1011.99 1012.12 1012.21 1012.29 1012.34 1012.39 1012.44 1012.48 1012.53 1012.57 1012.60 1012.63 1012.65 1012.65 1012.63 1012.59 1012.54 1012.46 1012.36 1012.24 1012.11 1011.97 1011.81 1011.65 1011.47 1011.29
Thickness
5757 5759 5756 5752 5751 5750 5743 5742 5736 5744 5747 5756 5762 5762 5763 5761 5758 5754 5750 5747 5743 5738 5735 5731 5727 5723 5718 5713 5709 5705 5699 5693 5688 5684 5680 5676 5673 5670 5667 5665 5663 5661 5658 5656
5748 5757 5755 5749 5753 5753 5750 5749 5747 5748 5750 5767 5769 5767 5764 5762 5758 5753 5750 5748 5745 5742 5738 5733 5729 5724 5720 5715 5711 5707 5701 5695 5691 5686 5682 5678 5674 5672 5669 5666 5664 5661 5659 5657
5737 5753 5748 5739 5757 5756 5754 5757 5753 5745 5755 5767 5764 5763 5762 5762 5759 5755 5752 5749 5746 5743 5740 5737 5733 5728 5722 5718 5714 5709 5703 5698 5693 5688 5683 5679 5677 5673 5670 5667 5665 5662 5660 5657
5737 5739 5721 5752 5779 5775 5765 5764 5767 5764 5766 5767 5766 5767 5768 5766 5761 5757 5754 5751 5747 5744 5741 5739 5736 5731 5726 5722 5716 5710 5704 5699 5695 5690 5685 5681 5677 5674 5671 5669 5666 5663 5661 5659
5735 5731 5742 5757 5771 5770 5760 5758 5772 5768 5768 5769 5771 5766 5763 5767 5764 5759 5756 5752 5748 5746 5743 5739 5735 5731 5727 5722 5716 5710 5704 5700 5696 5691 5686 5682 5678 5675 5673 5670 5667 5665 5663 5661
5734 5724 5728 5755 5775 5781 5766 5750 5774 5773 5768 5767 5764 5748 5751 5764 5762 5759 5755 5752 5748 5745 5742 5737 5734 5730 5724 5720 5715 5709 5705 5702 5698 5693 5688 5684 5680 5677 5674 5672 5669 5667 5665 5663
5724 5727 5744 5764 5774 5769 5739 5747 5773 5774 5770 5766 5759 5756 5759 5763 5759 5756 5752 5749 5746 5742 5738 5734 5732 5728 5722 5718 5713 5711 5707 5703 5699 5695 5691 5687 5683 5680 5676 5673 5670 5668 5666 5664
5731 5723 5736 5767 5765 5755 5756 5770 5771 5770 5769 5765 5762 5761 5760 5757 5753 5750 5747 5744 5742 5737 5734 5732 5730 5724 5719 5715 5714 5711 5706 5702 5698 5695 5693 5690 5684 5681 5678 5674 5671 5668 5666 5665
5748 5744 5759 5770 5767 5768 5771 5767 5766 5765 5765 5763 5758 5756 5755 5752 5750 5747 5744 5740 5737 5734 5730 5728 5726 5722 5716 5714 5713 5709 5704 5700 5698 5696 5693 5690 5685 5681 5678 5675 5671 5669 5667 5664
5752 5754 5760 5763 5765 5766 5766 5763 5763 5763 5761 5759 5754 5752 5750 5748 5746 5743 5740 5736 5733 5729 5725 5723 5722 5719 5715 5713 5710 5706 5702 5699 5698 5695 5693 5691 5687 5683 5679 5675 5672 5670 5667 5665
5748 5753 5754 5757 5759 5760 5760 5760 5758 5757 5756 5753 5750 5747 5745 5742 5740 5737 5734 5731 5728 5724 5721 5719 5719 5716 5713 5710 5707 5703 5700 5699 5697 5695 5692 5689 5687 5684 5681 5678 5675 5670 5668 5666
5742 5756 5754 5753 5758 5758 5753 5751 5751 5749 5747 5746 5744 5741 5739 5736 5734 5731 5728 5725 5722 5719 5716 5715 5714 5711 5709 5706 5703 5699 5697 5696 5694 5692 5690 5688 5685 5683 5683 5680 5678 5674 5671 5667
5760 5762 5760 5757 5755 5753 5749 5747 5745 5743 5740 5737 5736 5735 5732 5728 5726 5723 5720 5717 5714 5711 5709 5708 5706 5703 5702 5700 5697 5694 5692 5690 5689 5688 5686 5684 5682 5680 5678 5678 5676 5673 5670 5667
5757 5753 5745 5745 5744 5745 5743 5741 5739 5736 5733 5731 5728 5726 5723 5719 5716 5713 5710 5708 5706 5703 5701 5698 5696 5693 5692 5692 5690 5687 5686 5685 5683 5682 5680 5680 5679 5678 5676 5674 5673 5672 5671 5668
5744 5745 5742 5741 5739 5737 5735 5732 5728 5724 5722 5719 5718 5715 5712 5708 5704 5701 5700 5698 5695 5692 5689 5687 5684 5681 5682 5681 5679 5679 5678 5677 5676 5675 5675 5674 5674 5673 5672 5672 5671 5670 5670 5669
5734 5734 5733 5729 5726 5725 5724 5721 5717 5713 5711 5708 5706 5703 5701 5698 5694 5691 5688 5686 5682 5677 5675 5672 5670 5669 5670 5669 5668 5668 5668 5669 5668 5667 5667 5667 5666 5666 5665 5665 5665 5665 5664 5663
5720 5717 5717 5715 5715 5715 5714 5712 5709 5705 5701 5697 5695 5693 5690 5686 5682 5678 5675 5673 5669 5665 5662 5659 5657 5658 5658 5656 5655 5656 5657 5658 5659 5658 5657 5657 5656 5656 5656 5656 5656 5657 5657 5659
5719 5717 5715 5712 5708 5705 5703 5701 5698 5694 5689 5687 5684 5680 5677 5673 5668 5665 5662 5660 5656 5651 5648 5646 5645 5645 5645 5643 5642 5643 5644 5645 5646 5645 5645 5645 5645 5646 5646 5645 5645 5646 5647 5649
5707 5706 5705 5703 5701 5696 5692 5688 5684 5681 5677 5674 5670 5666 5663 5660 5656 5652 5649 5645 5640 5636 5633 5633 5632 5632 5631 5629 5629 5629 5630 5631 5631 5631 5631 5631 5631 5631 5631 5630 5631 5631 5633 5633
5689 5689 5688 5686 5684 5681 5676 5673 5670 5666 5663 5660 5656 5652 5648 5645 5643 5639 5634 5629 5625 5621 5621 5619 5619 5617 5616 5614 5614 5615 5615 5615 5615 5615 5614 5614 5613 5613 5613 5613 5613 5614 5614 5615
5668 5668 5666 5665 5663 5661 5658 5656 5653 5649 5647 5645 5642 5638 5635 5632 5629 5625 5620 5615 5611 5607 5607 5606 5604 5601 5600 5599 5600 5599 5599 5598 5597 5596 5596 5595 5595 5595 5595 5594 5594 5594 5594 5594
5647 5646 5645 5644 5642 5640 5640 5638 5636 5633 5631 5629 5626 5624 5620 5617 5614 5610 5606 5601 5598 5595 5593 5592 5589 5586 5585 5585 5585 5584 5583 5581 5580 5578 5577 5577 5576 5575 5575 5574 5574 5574 5573 5572
5628 5628 5627 5625 5624 5623 5622 5621 5619 5617 5614 5612 5610 5608 5605 5602 5600 5596 5591 5589 5586 5582 5579 5577 5575 5573 5572 5572 5571 5569 5567 5565 5563 5562 5560 5559 5558 5557 5556 5555 5554 5553 5552 5552
5611 5611 5610 5609 5608 5606 5604 5604 5602 5601 5599 5597 5595 5594 5591 5588 5585 5583 5579 5575 5572 5569 5567 5564 5562 5561 5560 5558 5557 5555 5553 5550 5548 5546 5544 5543 5541 5539 5537 5536 5534 5533 5532 5531
5595 5595 5594 5593 5591 5590 5589 5588 5586 5585 5583 5582 5581 5579 5578 5575 5572 5570 5567 5563 5560 5557 5554 5553 5551 5549 5547 5546 5544 5541 5539 5537 5535 5532 5530 5528 5525 5523 5520 5518 5515 5513 5511 5510
5578 5578 5577 5577 5576 5574 5574 5573 5571 5570 5569 5568 5566 5565 5564 5561 5559 5556 5553 5551 5548 5545 5543 5541 5539 5537 5535 5533 5530 5528 5526 5524 5521 5519 5516 5513 5509 5506 5503 5500 5498 5495 5492 5490
5562 5561 5559 5560 5559 5559 5559 5559 5558 5557 5557 5555 5554 5552 5550 5548 5546 5543 5541 5538 5536 5534 5532 5529 5527 5525 5522 5520 5517 5515 5513 5510 5507 5504 5501 5497 5493 5490 5486 5483 5480 5477 5474 5471